QPF
0.01 0.01 0.01 0.01 0.01 0.01 0.00 0.00 0.00 0.00 0.00 0.01 0.01 0.01 0.02 0.02 0.04 0.06 0.07 0.08 0.07 0.07 0.07 0.06 0.07 0.07 0.06 0.05 0.04 0.04 0.04 0.03 0.03 0.03 0.02 0.01 0.01 0.01 0.01 0.01 0.02 0.02 0.02
0.01 0.02 0.01 0.01 0.01 0.01 0.01 0.00 0.00 0.00 0.00 0.01 0.01 0.01 0.02 0.02 0.03 0.04 0.04 0.05 0.06 0.06 0.05 0.05 0.05 0.06 0.07 0.06 0.05 0.04 0.03 0.03 0.03 0.03 0.02 0.02 0.02 0.01 0.01 0.01 0.01 0.01 0.02
0.02 0.02 0.02 0.02 0.01 0.01 0.00 0.00 0.00 0.00 0.00 0.00 0.01 0.01 0.01 0.02 0.02 0.03 0.03 0.03 0.04 0.05 0.05 0.05 0.05 0.05 0.05 0.06 0.06 0.05 0.04 0.03 0.02 0.03 0.02 0.02 0.02 0.02 0.02 0.02 0.02 0.02 0.02
0.01 0.01 0.02 0.01 0.01 0.01 0.00 0.00 0.00 0.00 0.00 0.00 0.01 0.01 0.01 0.01 0.02 0.02 0.02 0.03 0.02 0.03 0.04 0.04 0.04 0.04 0.04 0.05 0.06 0.06 0.06 0.05 0.04 0.03 0.03 0.02 0.02 0.02 0.02 0.03 0.03 0.03 0.02
0.01 0.01 0.01 0.01 0.01 0.01 0.00 0.00 0.00 0.00 0.00 0.01 0.01 0.01 0.01 0.01 0.02 0.02 0.02 0.02 0.02 0.02 0.03 0.04 0.04 0.04 0.03 0.04 0.04 0.05 0.06 0.07 0.06 0.05 0.04 0.03 0.03 0.02 0.02 0.02 0.03 0.03 0.03
0.01 0.01 0.01 0.01 0.00 0.00 0.00 0.00 0.00 0.00 0.00 0.00 0.01 0.01 0.01 0.02 0.03 0.02 0.02 0.03 0.03 0.03 0.02 0.03 0.04 0.04 0.03 0.03 0.03 0.04 0.04 0.05 0.06 0.06 0.06 0.04 0.03 0.03 0.02 0.02 0.02 0.03 0.03
0.01 0.01 0.01 0.01 0.00 0.00 0.00 0.00 0.00 0.00 0.00 0.00 0.01 0.01 0.01 0.02 0.03 0.03 0.02 0.02 0.03 0.03 0.02 0.03 0.03 0.04 0.03 0.02 0.03 0.03 0.03 0.04 0.04 0.05 0.05 0.04 0.03 0.03 0.03 0.03 0.02 0.02 0.03
0.01 0.01 0.01 0.01 0.01 0.01 0.00 0.00 0.00 0.00 0.00 0.00 0.01 0.01 0.01 0.01 0.02 0.03 0.03 0.02 0.02 0.02 0.01 0.02 0.02 0.03 0.04 0.03 0.02 0.02 0.02 0.02 0.02 0.02 0.03 0.03 0.03 0.03 0.03 0.03 0.03 0.03 0.03
0.01 0.01 0.01 0.01 0.01 0.01 0.01 0.01 0.00 0.00 0.00 0.01 0.01 0.01 0.01 0.01 0.01 0.02 0.02 0.01 0.01 0.02 0.01 0.02 0.02 0.02 0.03 0.03 0.03 0.02 0.01 0.01 0.02 0.02 0.02 0.02 0.03 0.03 0.03 0.03 0.03 0.03 0.03
0.00 0.00 0.00 0.00 0.00 0.00 0.00 0.00 0.00 0.00 0.00 0.01 0.01 0.01 0.01 0.01 0.01 0.01 0.01 0.01 0.01 0.01 0.01 0.01 0.02 0.01 0.02 0.03 0.03 0.03 0.02 0.02 0.01 0.02 0.02 0.02 0.02 0.02 0.03 0.02 0.02 0.02 0.02
0.00 0.00 0.00 0.00 0.00 0.00 0.00 0.00 0.00 0.00 0.00 0.01 0.01 0.01 0.01 0.01 0.01 0.01 0.01 0.01 0.01 0.01 0.01 0.01 0.02 0.02 0.02 0.02 0.03 0.03 0.03 0.03 0.02 0.02 0.03 0.02 0.02 0.02 0.02 0.02 0.01 0.01 0.01
0.00 0.00 0.00 0.00 0.00 0.00 0.00 0.00 0.00 0.00 0.01 0.01 0.01 0.01 0.01 0.01 0.01 0.01 0.01 0.01 0.01 0.01 0.01 0.01 0.02 0.02 0.01 0.01 0.01 0.02 0.03 0.03 0.03 0.03 0.02 0.02 0.02 0.02 0.02 0.02 0.02 0.01 0.01
0.00 0.00 0.00 0.00 0.00 0.00 0.00 0.00 0.01 0.00 0.01 0.01 0.01 0.01 0.01 0.01 0.01 0.01 0.01 0.01 0.01 0.00 0.01 0.01 0.01 0.01 0.01 0.01 0.01 0.01 0.02 0.03 0.04 0.04 0.03 0.02 0.01 0.01 0.01 0.02 0.02 0.01 0.01
0.00 0.00 0.00 0.00 0.00 0.00 0.00 0.01 0.01 0.00 0.01 0.01 0.01 0.01 0.01 0.01 0.01 0.01 0.01 0.01 0.01 0.01 0.00 0.00 0.00 0.00 0.00 0.00 0.01 0.01 0.01 0.03 0.04 0.05 0.04 0.02 0.01 0.01 0.01 0.01 0.02 0.01 0.01
0.01 0.00 0.00 0.00 0.00 0.00 0.00 0.00 0.00 0.00 0.00 0.01 0.01 0.01 0.01 0.01 0.01 0.00 0.00 0.00 0.01 0.00 0.00 0.00 0.00 0.00 0.00 0.00 0.00 0.00 0.01 0.02 0.03 0.04 0.05 0.03 0.02 0.01 0.01 0.01 0.01 0.01 0.01
0.01 0.01 0.01 0.00 0.00 0.00 0.00 0.00 0.00 0.00 0.00 0.01 0.01 0.01 0.00 0.00 0.00 0.00 0.00 0.00 0.01 0.01 0.01 0.01 0.00 0.00 0.00 0.00 0.00 0.00 0.01 0.01 0.02 0.03 0.04 0.04 0.03 0.02 0.01 0.01 0.01 0.01 0.01
0.01 0.01 0.01 0.01 0.00 0.00 0.00 0.00 0.01 0.01 0.01 0.01 0.01 0.01 0.00 0.00 0.00 0.00 0.00 0.00 0.00 0.00 0.01 0.00 0.00 0.00 0.00 0.00 0.00 0.00 0.01 0.01 0.01 0.02 0.03 0.04 0.04 0.03 0.01 0.01 0.01 0.01 0.01
0.01 0.01 0.01 0.01 0.01 0.01 0.01 0.00 0.00 0.00 0.01 0.01 0.01 0.01 0.01 0.00 0.00 0.00 0.00 0.00 0.00 0.00 0.00 0.00 0.00 0.00 0.01 0.01 0.01 0.01 0.01 0.01 0.01 0.01 0.02 0.03 0.03 0.04 0.03 0.01 0.01 0.01 0.01
0.02 0.01 0.01 0.01 0.01 0.01 0.01 0.01 0.01 0.01 0.01 0.01 0.01 0.01 0.01 0.01 0.01 0.01 0.00 0.00 0.00 0.01 0.01 0.01 0.01 0.01 0.01 0.01 0.01 0.01 0.01 0.01 0.01 0.01 0.01 0.01 0.02 0.03 0.03 0.02 0.01 0.02 0.02
0.02 0.02 0.02 0.01 0.01 0.01 0.01 0.01 0.01 0.01 0.01 0.01 0.01 0.01 0.01 0.01 0.01 0.01 0.01 0.01 0.01 0.01 0.01 0.01 0.01 0.01 0.01 0.01 0.01 0.01 0.02 0.02 0.02 0.02 0.01 0.01 0.02 0.02 0.03 0.03 0.02 0.02 0.02
0.02 0.01 0.01 0.01 0.02 0.02 0.01 0.01 0.01 0.01 0.01 0.01 0.01 0.01 0.01 0.01 0.01 0.01 0.01 0.01 0.01 0.01 0.01 0.01 0.01 0.01 0.01 0.01 0.01 0.02 0.02 0.02 0.02 0.02 0.02 0.01 0.01 0.02 0.02 0.02 0.02 0.02 0.02
0.01 0.01 0.01 0.01 0.01 0.01 0.01 0.01 0.01 0.01 0.01 0.01 0.01 0.01 0.01 0.01 0.01 0.01 0.01 0.01 0.01 0.01 0.01 0.01 0.01 0.01 0.02 0.02 0.02 0.02 0.02 0.01 0.02 0.02 0.02 0.02 0.02 0.02 0.02 0.02 0.02 0.02 0.02
0.01 0.01 0.01 0.01 0.01 0.01 0.02 0.01 0.01 0.01 0.01 0.01 0.01 0.01 0.01 0.01 0.01 0.01 0.01 0.01 0.01 0.01 0.01 0.02 0.02 0.01 0.02 0.02 0.02 0.02 0.02 0.02 0.01 0.02 0.02 0.02 0.02 0.02 0.02 0.02 0.02 0.02 0.02
0.01 0.01 0.01 0.01 0.01 0.01 0.01 0.01 0.01 0.01 0.01 0.01 0.01 0.01 0.02 0.02 0.02 0.02 0.02 0.01 0.01 0.01 0.02 0.02 0.02 0.01 0.01 0.02 0.02 0.02 0.02 0.02 0.01 0.01 0.01 0.02 0.02 0.01 0.02 0.02 0.02 0.02 0.02
0.01 0.01 0.01 0.01 0.01 0.01 0.01 0.01 0.01 0.01 0.01 0.01 0.01 0.01 0.01 0.02 0.02 0.02 0.02 0.01 0.01 0.02 0.02 0.02 0.02 0.01 0.01 0.01 0.01 0.01 0.02 0.02 0.02 0.02 0.02 0.02 0.01 0.01 0.02 0.02 0.02 0.02 0.02
0.01 0.01 0.01 0.01 0.01 0.01 0.01 0.01 0.01 0.01 0.01 0.01 0.01 0.01 0.01 0.01 0.01 0.02 0.02 0.01 0.01 0.02 0.02 0.02 0.01 0.01 0.01 0.01 0.01 0.01 0.01 0.01 0.01 0.02 0.02 0.03 0.02 0.02 0.02 0.02 0.02 0.02 0.02
MSLP
1012.56 1012.75 1012.90 1013.02 1013.12 1013.21 1013.31 1013.41 1013.53 1013.65 1013.75 1013.81 1013.81 1013.76 1013.64 1013.46 1013.25 1013.02 1012.80 1012.60 1012.43 1012.29 1012.17 1012.06 1011.93 1011.77 1011.57 1011.33 1011.05 1010.76 1010.46 1010.20 1009.97 1009.81 1009.72 1009.70 1009.74 1009.81 1009.92 1010.04 1010.16 1010.30 1010.44
1013.08 1013.27 1013.42 1013.53 1013.63 1013.72 1013.80 1013.90 1014.01 1014.10 1014.17 1014.20 1014.18 1014.09 1013.94 1013.74 1013.50 1013.25 1013.01 1012.78 1012.59 1012.42 1012.27 1012.12 1011.95 1011.75 1011.51 1011.23 1010.93 1010.61 1010.30 1010.03 1009.81 1009.66 1009.57 1009.56 1009.61 1009.70 1009.82 1009.96 1010.10 1010.25 1010.41
1013.39 1013.57 1013.72 1013.84 1013.94 1014.03 1014.13 1014.24 1014.34 1014.42 1014.48 1014.48 1014.43 1014.31 1014.14 1013.92 1013.66 1013.40 1013.15 1012.92 1012.72 1012.54 1012.37 1012.20 1012.00 1011.78 1011.51 1011.21 1010.89 1010.56 1010.25 1009.98 1009.76 1009.61 1009.54 1009.53 1009.58 1009.67 1009.79 1009.92 1010.06 1010.21 1010.38
1013.52 1013.68 1013.81 1013.93 1014.05 1014.17 1014.28 1014.40 1014.51 1014.59 1014.64 1014.62 1014.54 1014.40 1014.20 1013.96 1013.70 1013.43 1013.18 1012.96 1012.76 1012.58 1012.41 1012.24 1012.04 1011.80 1011.53 1011.22 1010.90 1010.57 1010.27 1010.00 1009.80 1009.66 1009.58 1009.57 1009.62 1009.69 1009.79 1009.90 1010.03 1010.16 1010.32
1013.53 1013.65 1013.77 1013.89 1014.02 1014.15 1014.30 1014.43 1014.55 1014.64 1014.67 1014.63 1014.53 1014.36 1014.14 1013.88 1013.60 1013.34 1013.09 1012.87 1012.69 1012.52 1012.36 1012.19 1011.99 1011.76 1011.50 1011.20 1010.89 1010.58 1010.30 1010.05 1009.86 1009.73 1009.66 1009.64 1009.67 1009.72 1009.79 1009.87 1009.97 1010.07 1010.21
1013.48 1013.56 1013.65 1013.76 1013.90 1014.05 1014.22 1014.37 1014.50 1014.59 1014.61 1014.55 1014.42 1014.22 1013.97 1013.69 1013.40 1013.12 1012.87 1012.66 1012.48 1012.32 1012.17 1012.01 1011.82 1011.61 1011.36 1011.09 1010.81 1010.54 1010.28 1010.07 1009.90 1009.78 1009.72 1009.69 1009.70 1009.73 1009.77 1009.82 1009.88 1009.96 1010.07
1013.40 1013.44 1013.50 1013.61 1013.75 1013.92 1014.10 1014.27 1014.40 1014.48 1014.49 1014.41 1014.25 1014.02 1013.73 1013.42 1013.11 1012.81 1012.55 1012.33 1012.14 1011.98 1011.83 1011.68 1011.51 1011.31 1011.10 1010.86 1010.62 1010.38 1010.17 1010.00 1009.86 1009.77 1009.72 1009.69 1009.69 1009.70 1009.72 1009.75 1009.79 1009.85 1009.94
1013.32 1013.32 1013.36 1013.46 1013.60 1013.78 1013.97 1014.14 1014.28 1014.35 1014.33 1014.23 1014.04 1013.77 1013.45 1013.10 1012.75 1012.43 1012.14 1011.90 1011.70 1011.52 1011.37 1011.21 1011.05 1010.88 1010.69 1010.49 1010.29 1010.11 1009.95 1009.82 1009.73 1009.67 1009.63 1009.62 1009.62 1009.62 1009.64 1009.65 1009.69 1009.75 1009.84
1013.21 1013.19 1013.23 1013.32 1013.46 1013.64 1013.83 1014.00 1014.12 1014.18 1014.14 1014.01 1013.78 1013.48 1013.12 1012.74 1012.35 1012.00 1011.67 1011.40 1011.17 1010.98 1010.81 1010.65 1010.49 1010.34 1010.18 1010.02 1009.87 1009.74 1009.63 1009.56 1009.51 1009.48 1009.48 1009.48 1009.49 1009.51 1009.53 1009.56 1009.60 1009.68 1009.78
1013.05 1013.03 1013.07 1013.16 1013.31 1013.48 1013.66 1013.82 1013.93 1013.96 1013.90 1013.74 1013.48 1013.14 1012.75 1012.33 1011.92 1011.52 1011.17 1010.87 1010.61 1010.39 1010.21 1010.04 1009.89 1009.75 1009.62 1009.50 1009.40 1009.32 1009.27 1009.24 1009.23 1009.24 1009.27 1009.30 1009.33 1009.37 1009.41 1009.46 1009.53 1009.63 1009.75
1012.83 1012.82 1012.87 1012.97 1013.11 1013.28 1013.45 1013.59 1013.67 1013.67 1013.58 1013.39 1013.10 1012.74 1012.32 1011.88 1011.45 1011.03 1010.65 1010.33 1010.05 1009.81 1009.62 1009.45 1009.31 1009.19 1009.08 1009.00 1008.95 1008.92 1008.91 1008.92 1008.95 1009.00 1009.05 1009.10 1009.16 1009.21 1009.28 1009.36 1009.46 1009.58 1009.73
1012.51 1012.54 1012.61 1012.71 1012.85 1013.00 1013.15 1013.26 1013.31 1013.28 1013.16 1012.95 1012.64 1012.27 1011.84 1011.40 1010.95 1010.53 1010.15 1009.81 1009.53 1009.29 1009.09 1008.94 1008.81 1008.71 1008.64 1008.59 1008.58 1008.58 1008.61 1008.65 1008.71 1008.78 1008.84 1008.91 1008.98 1009.05 1009.14 1009.24 1009.36 1009.51 1009.68
1012.11 1012.17 1012.26 1012.38 1012.51 1012.64 1012.76 1012.84 1012.85 1012.79 1012.65 1012.41 1012.10 1011.72 1011.31 1010.88 1010.45 1010.04 1009.68 1009.36 1009.08 1008.86 1008.68 1008.54 1008.44 1008.36 1008.32 1008.31 1008.32 1008.35 1008.40 1008.46 1008.53 1008.60 1008.67 1008.74 1008.81 1008.89 1008.98 1009.09 1009.23 1009.39 1009.58
1011.63 1011.72 1011.83 1011.95 1012.07 1012.18 1012.26 1012.31 1012.29 1012.20 1012.04 1011.80 1011.50 1011.14 1010.75 1010.35 1009.96 1009.60 1009.26 1008.98 1008.74 1008.55 1008.39 1008.28 1008.20 1008.16 1008.14 1008.15 1008.18 1008.23 1008.29 1008.35 1008.41 1008.47 1008.52 1008.57 1008.63 1008.70 1008.79 1008.90 1009.04 1009.20 1009.39
1011.06 1011.18 1011.30 1011.42 1011.53 1011.62 1011.68 1011.69 1011.65 1011.55 1011.38 1011.15 1010.87 1010.55 1010.20 1009.86 1009.52 1009.21 1008.94 1008.70 1008.51 1008.36 1008.24 1008.16 1008.11 1008.08 1008.09 1008.11 1008.15 1008.19 1008.24 1008.29 1008.33 1008.36 1008.39 1008.41 1008.44 1008.49 1008.56 1008.66 1008.79 1008.94 1009.11
1010.41 1010.55 1010.68 1010.79 1010.89 1010.97 1011.01 1011.01 1010.96 1010.86 1010.70 1010.50 1010.26 1009.99 1009.71 1009.43 1009.17 1008.92 1008.71 1008.53 1008.39 1008.28 1008.19 1008.14 1008.11 1008.10 1008.11 1008.13 1008.16 1008.19 1008.22 1008.24 1008.25 1008.24 1008.24 1008.23 1008.22 1008.24 1008.28 1008.36 1008.47 1008.60 1008.75
1009.67 1009.81 1009.95 1010.07 1010.18 1010.25 1010.30 1010.30 1010.26 1010.18 1010.05 1009.89 1009.71 1009.50 1009.29 1009.09 1008.90 1008.73 1008.59 1008.46 1008.36 1008.28 1008.23 1008.19 1008.16 1008.16 1008.16 1008.17 1008.18 1008.18 1008.18 1008.16 1008.13 1008.09 1008.04 1008.00 1007.96 1007.95 1007.96 1008.01 1008.09 1008.20 1008.33
1008.84 1009.00 1009.14 1009.28 1009.40 1009.50 1009.56 1009.60 1009.59 1009.54 1009.47 1009.37 1009.24 1009.12 1008.98 1008.86 1008.74 1008.64 1008.55 1008.47 1008.40 1008.35 1008.30 1008.26 1008.23 1008.20 1008.19 1008.17 1008.15 1008.12 1008.08 1008.03 1007.96 1007.89 1007.80 1007.72 1007.65 1007.61 1007.59 1007.61 1007.67 1007.75 1007.85
1007.96 1008.12 1008.29 1008.46 1008.61 1008.75 1008.85 1008.93 1008.98 1008.99 1008.98 1008.94 1008.89 1008.84 1008.78 1008.72 1008.67 1008.62 1008.57 1008.52 1008.48 1008.42 1008.37 1008.32 1008.26 1008.21 1008.16 1008.11 1008.06 1008.00 1007.92 1007.84 1007.74 1007.63 1007.51 1007.40 1007.30 1007.23 1007.19 1007.18 1007.21 1007.27 1007.35
1007.07 1007.25 1007.45 1007.66 1007.86 1008.05 1008.22 1008.36 1008.47 1008.55 1008.60 1008.63 1008.65 1008.67 1008.67 1008.67 1008.67 1008.66 1008.64 1008.60 1008.55 1008.49 1008.42 1008.34 1008.25 1008.16 1008.08 1007.99 1007.90 1007.80 1007.70 1007.59 1007.46 1007.33 1007.19 1007.05 1006.93 1006.83 1006.76 1006.73 1006.73 1006.76 1006.81
1006.24 1006.45 1006.70 1006.96 1007.23 1007.48 1007.71 1007.92 1008.09 1008.23 1008.35 1008.44 1008.52 1008.58 1008.64 1008.68 1008.71 1008.72 1008.71 1008.67 1008.61 1008.53 1008.42 1008.31 1008.18 1008.06 1007.93 1007.80 1007.68 1007.56 1007.43 1007.29 1007.15 1006.99 1006.83 1006.68 1006.53 1006.40 1006.30 1006.24 1006.20 1006.20 1006.23
1005.57 1005.82 1006.11 1006.44 1006.77 1007.09 1007.38 1007.64 1007.87 1008.06 1008.23 1008.36 1008.48 1008.57 1008.65 1008.72 1008.76 1008.77 1008.76 1008.71 1008.62 1008.51 1008.37 1008.22 1008.06 1007.89 1007.72 1007.57 1007.41 1007.26 1007.11 1006.96 1006.79 1006.62 1006.44 1006.26 1006.09 1005.93 1005.80 1005.69 1005.62 1005.58 1005.57
1005.12 1005.42 1005.78 1006.16 1006.55 1006.92 1007.26 1007.56 1007.82 1008.04 1008.22 1008.37 1008.50 1008.61 1008.69 1008.76 1008.79 1008.80 1008.76 1008.69 1008.58 1008.44 1008.26 1008.07 1007.87 1007.66 1007.46 1007.27 1007.09 1006.91 1006.74 1006.56 1006.38 1006.19 1005.99 1005.78 1005.57 1005.37 1005.20 1005.04 1004.92 1004.84 1004.79
1004.95 1005.31 1005.72 1006.15 1006.57 1006.98 1007.34 1007.65 1007.92 1008.13 1008.31 1008.45 1008.57 1008.66 1008.73 1008.77 1008.79 1008.77 1008.71 1008.61 1008.47 1008.29 1008.08 1007.85 1007.60 1007.36 1007.12 1006.90 1006.68 1006.48 1006.28 1006.07 1005.86 1005.64 1005.40 1005.15 1004.90 1004.66 1004.43 1004.22 1004.05 1003.92 1003.82
1005.06 1005.47 1005.92 1006.39 1006.83 1007.24 1007.59 1007.89 1008.13 1008.32 1008.46 1008.56 1008.64 1008.70 1008.74 1008.75 1008.74 1008.69 1008.60 1008.46 1008.28 1008.07 1007.81 1007.54 1007.25 1006.96 1006.68 1006.41 1006.15 1005.90 1005.66 1005.41 1005.16 1004.89 1004.61 1004.31 1004.01 1003.71 1003.42 1003.16 1002.93 1002.74 1002.60
1005.43 1005.88 1006.35 1006.82 1007.26 1007.64 1007.96 1008.22 1008.40 1008.54 1008.62 1008.68 1008.71 1008.72 1008.71 1008.68 1008.63 1008.54 1008.41 1008.24 1008.02 1007.75 1007.45 1007.12 1006.78 1006.44 1006.10 1005.76 1005.44 1005.13 1004.83 1004.52 1004.20 1003.87 1003.53 1003.17 1002.80 1002.44 1002.09 1001.77 1001.48 1001.25 1001.07
Thickness
5504 5503 5503 5502 5502 5502 5503 5504 5505 5505 5506 5507 5508 5509 5511 5512 5513 5513 5514 5514 5514 5514 5513 5513 5512 5510 5509 5508 5508 5507 5507 5507 5506 5505 5501 5500 5499 5498 5497 5497 5496 5495 5495
5494 5494 5493 5493 5492 5493 5493 5494 5495 5496 5497 5498 5499 5500 5502 5503 5503 5504 5504 5504 5504 5504 5503 5502 5501 5499 5498 5497 5496 5496 5495 5495 5494 5493 5490 5488 5487 5486 5486 5485 5484 5484 5483
5485 5485 5484 5484 5483 5483 5484 5485 5486 5487 5487 5488 5489 5490 5492 5492 5493 5493 5494 5494 5494 5494 5493 5492 5491 5489 5488 5486 5485 5484 5483 5482 5482 5480 5479 5476 5475 5474 5473 5473 5472 5471 5470
5477 5476 5476 5475 5475 5475 5475 5476 5476 5477 5478 5478 5479 5480 5481 5481 5482 5483 5483 5483 5483 5482 5482 5481 5480 5479 5477 5475 5473 5472 5471 5470 5469 5467 5467 5465 5464 5462 5461 5461 5460 5459 5458
5468 5468 5468 5467 5467 5466 5466 5467 5467 5467 5468 5468 5469 5470 5470 5471 5471 5472 5472 5472 5471 5470 5470 5469 5468 5466 5464 5463 5461 5461 5459 5458 5456 5455 5455 5454 5453 5451 5450 5448 5447 5446 5445
5460 5460 5459 5459 5458 5458 5459 5459 5459 5459 5459 5459 5459 5460 5460 5460 5460 5460 5460 5460 5460 5459 5458 5457 5455 5454 5452 5450 5449 5449 5448 5447 5446 5445 5443 5442 5441 5439 5437 5435 5434 5433 5433
5452 5451 5451 5451 5450 5450 5450 5450 5450 5450 5449 5449 5449 5450 5450 5450 5448 5448 5448 5448 5448 5448 5446 5445 5444 5442 5440 5440 5438 5437 5436 5435 5434 5434 5433 5432 5430 5428 5426 5424 5422 5421 5420
5443 5443 5442 5442 5442 5441 5441 5442 5442 5441 5440 5440 5440 5440 5440 5439 5438 5437 5436 5436 5436 5436 5435 5434 5432 5430 5429 5427 5426 5426 5425 5423 5422 5421 5421 5420 5418 5416 5413 5412 5410 5408 5406
5435 5434 5434 5434 5433 5433 5433 5432 5432 5431 5431 5430 5430 5429 5429 5429 5427 5427 5425 5426 5426 5425 5423 5422 5420 5419 5418 5416 5415 5414 5413 5412 5410 5409 5408 5406 5404 5402 5401 5399 5397 5395 5395
5427 5426 5426 5425 5425 5425 5424 5423 5422 5421 5421 5420 5419 5419 5419 5419 5417 5416 5415 5416 5416 5414 5412 5411 5409 5408 5406 5405 5404 5404 5403 5401 5399 5397 5395 5393 5392 5390 5388 5387 5385 5383 5382
5418 5417 5417 5417 5416 5416 5415 5414 5413 5411 5411 5410 5409 5409 5408 5408 5408 5406 5406 5406 5405 5403 5402 5400 5398 5396 5395 5394 5393 5392 5391 5389 5387 5386 5384 5382 5380 5378 5376 5374 5372 5371 5369
5409 5409 5409 5408 5407 5406 5405 5404 5403 5402 5401 5400 5400 5400 5399 5398 5398 5397 5396 5395 5394 5393 5392 5390 5387 5385 5384 5382 5381 5380 5378 5376 5375 5374 5372 5371 5369 5367 5365 5362 5360 5359 5357
5400 5400 5400 5399 5398 5397 5396 5395 5394 5393 5393 5392 5392 5392 5391 5389 5388 5387 5386 5385 5383 5382 5381 5379 5376 5374 5372 5371 5369 5367 5366 5364 5363 5362 5362 5360 5357 5355 5353 5350 5349 5347 5346
5392 5392 5391 5390 5389 5388 5387 5386 5386 5386 5385 5385 5384 5383 5382 5381 5379 5378 5377 5375 5373 5371 5370 5368 5365 5363 5361 5359 5357 5355 5354 5353 5352 5351 5351 5348 5345 5343 5341 5340 5339 5337 5336
5384 5384 5383 5383 5382 5381 5380 5379 5378 5378 5378 5377 5376 5375 5374 5374 5372 5370 5368 5367 5365 5363 5360 5358 5356 5354 5352 5350 5347 5345 5343 5342 5340 5339 5338 5337 5335 5333 5332 5330 5328 5327 5325
5377 5377 5376 5376 5375 5373 5372 5371 5369 5369 5368 5367 5367 5366 5366 5364 5363 5361 5360 5358 5356 5353 5351 5350 5348 5346 5344 5342 5339 5337 5335 5333 5331 5329 5328 5327 5326 5324 5322 5320 5318 5317 5316
5370 5369 5369 5368 5367 5366 5365 5364 5363 5360 5359 5358 5357 5357 5356 5356 5355 5354 5352 5350 5348 5345 5344 5342 5340 5338 5336 5333 5331 5329 5327 5325 5322 5320 5319 5318 5317 5315 5313 5311 5309 5308 5306
5362 5361 5361 5360 5359 5358 5357 5356 5355 5354 5352 5351 5350 5349 5348 5348 5347 5346 5344 5342 5340 5338 5336 5334 5332 5330 5327 5325 5323 5321 5319 5316 5314 5312 5310 5309 5307 5306 5304 5302 5300 5298 5296
5355 5355 5353 5353 5351 5350 5349 5347 5346 5344 5344 5344 5343 5342 5341 5339 5339 5337 5335 5334 5333 5331 5329 5327 5324 5322 5319 5317 5315 5313 5311 5309 5306 5304 5302 5300 5298 5296 5295 5294 5292 5289 5287
5348 5347 5346 5345 5344 5343 5341 5340 5338 5337 5336 5335 5335 5334 5332 5331 5331 5330 5328 5327 5325 5323 5321 5319 5317 5314 5312 5310 5308 5306 5304 5302 5299 5297 5295 5292 5290 5288 5287 5285 5284 5282 5280
5343 5342 5339 5339 5338 5337 5335 5333 5332 5330 5329 5328 5327 5326 5325 5324 5323 5322 5321 5319 5317 5315 5314 5311 5309 5307 5305 5302 5300 5298 5296 5294 5292 5289 5287 5285 5283 5281 5279 5278 5276 5274 5273
5337 5336 5334 5333 5331 5330 5328 5327 5325 5323 5322 5320 5319 5317 5317 5316 5315 5314 5313 5311 5310 5308 5306 5304 5302 5300 5298 5295 5293 5291 5289 5287 5285 5282 5280 5278 5276 5274 5272 5271 5269 5268 5267
5331 5330 5328 5326 5325 5324 5322 5319 5317 5316 5314 5313 5312 5310 5309 5309 5308 5307 5306 5304 5303 5300 5298 5297 5295 5294 5291 5289 5287 5285 5283 5281 5278 5276 5273 5272 5270 5268 5267 5266 5264 5263 5262
5324 5323 5322 5320 5318 5317 5315 5313 5310 5308 5307 5305 5304 5303 5302 5301 5300 5299 5298 5297 5295 5294 5292 5291 5289 5288 5285 5283 5281 5279 5277 5275 5272 5270 5267 5266 5264 5263 5262 5260 5260 5259 5257
5318 5317 5315 5314 5312 5310 5308 5305 5303 5301 5299 5298 5297 5296 5295 5294 5293 5293 5291 5290 5289 5288 5286 5285 5283 5282 5280 5278 5276 5274 5272 5270 5267 5265 5263 5262 5261 5259 5258 5256 5256 5255 5253
5311 5310 5308 5306 5304 5302 5300 5298 5296 5294 5292 5291 5290 5289 5288 5288 5287 5286 5285 5284 5283 5281 5280 5279 5278 5276 5274 5273 5271 5269 5267 5265 5263 5262 5260 5259 5258 5257 5255 5254 5253 5252 5250